Theta_e
315 316 317 317 316 315 314 314 314 314 314 315 316 317 319 319 318 301 293 301 311 319 319 308 302 299 299 297 297 296 288 285 286 286 288 289 289 290 291 290 290 291 290 292 295
315 316 317 317 317 316 315 315 314 314 314 314 316 317 318 319 301 297 307 316 317 318 305 296 296 297 295 294 294 293 288 288 288 288 286 289 289 290 288 287 287 289 292 294 294
316 317 317 318 318 317 317 317 316 315 314 314 315 317 318 315 295 295 313 317 318 314 305 301 297 297 293 291 290 288 288 287 288 289 290 289 287 289 288 285 288 289 290 292 292
318 318 318 318 318 318 318 318 318 317 316 315 315 317 319 304 285 299 317 317 318 308 301 296 296 293 289 288 289 288 288 289 290 290 290 289 289 287 287 287 291 291 292 291 291
319 319 319 319 318 319 319 319 318 318 316 315 315 317 306 293 293 303 314 308 303 300 296 295 293 291 289 288 288 287 287 289 289 290 289 290 286 287 287 288 291 292 293 291 291
320 320 320 319 319 319 320 319 319 318 316 315 315 318 297 287 301 303 303 302 300 298 294 295 293 293 290 288 287 287 288 287 288 288 289 288 286 287 287 289 290 291 290 290 291
316 317 318 320 320 320 320 320 319 318 316 315 315 308 295 291 300 301 303 299 299 298 294 296 296 294 291 288 290 288 285 285 285 286 286 288 285 286 288 289 289 289 288 290 291
313 314 316 319 320 320 320 319 318 316 315 314 315 299 289 301 299 301 302 299 299 299 299 298 298 295 291 290 289 285 282 279 282 287 286 285 280 284 288 287 287 287 286 289 291
311 312 315 319 320 320 319 318 315 314 313 314 301 294 289 305 297 299 300 298 298 298 299 299 296 292 290 285 280 282 277 278 282 287 286 283 279 285 287 287 286 285 285 288 289
311 311 312 317 319 319 318 314 314 311 308 307 300 290 293 292 296 298 298 299 295 295 295 294 290 286 284 281 278 277 277 281 280 285 284 282 282 284 287 287 286 285 285 287 289
310 310 312 315 319 318 309 299 298 298 298 294 294 293 294 297 298 297 299 296 295 292 285 290 284 282 284 282 282 282 281 278 281 285 285 283 284 285 286 287 286 285 284 286 288
309 310 311 316 318 316 303 295 296 297 290 297 297 296 298 298 290 294 299 290 289 284 286 284 282 286 287 287 285 283 279 279 282 284 284 282 283 286 287 288 289 288 286 287 288
308 309 309 313 314 303 299 299 302 300 292 295 296 296 295 296 291 291 294 291 287 286 284 281 285 289 288 286 284 282 280 279 280 283 283 281 280 282 284 286 290 290 288 288 289
307 307 309 312 307 298 296 303 303 301 285 290 291 294 296 295 289 296 295 291 287 284 285 284 288 286 284 284 285 280 285 284 284 280 276 280 274 280 281 283 285 288 286 288 289
305 306 308 311 297 295 299 302 301 300 276 290 290 298 296 291 291 291 295 290 285 285 284 281 283 283 283 284 287 283 287 285 283 280 278 278 275 279 283 283 286 287 286 288 290
303 305 307 307 298 297 299 300 300 285 276 284 290 289 288 290 290 292 291 293 291 286 286 284 288 287 285 287 287 288 285 284 281 279 274 281 277 277 280 285 287 287 286 288 289
302 304 304 306 300 301 300 297 284 276 285 283 285 288 287 286 287 288 285 284 281 278 278 282 284 286 288 283 287 286 282 278 276 272 276 277 274 282 287 286 287 286 285 288 290
302 302 301 304 303 303 299 290 278 278 280 288 287 287 285 286 285 286 283 279 283 283 276 277 277 283 287 283 282 282 282 280 273 271 274 278 275 281 285 287 288 287 286 288 289
301 296 297 301 303 303 295 285 280 283 288 285 286 282 282 284 284 283 282 282 283 286 282 277 279 285 287 287 285 282 279 284 279 269 273 278 281 286 283 284 285 284 286 287 288
292 292 295 301 303 300 288 286 284 290 290 287 283 283 277 281 281 281 282 285 285 287 287 284 279 283 285 286 286 283 284 278 277 270 268 275 277 280 284 283 283 283 283 285 287
292 286 293 301 301 291 285 285 285 292 290 288 285 283 283 282 282 278 281 285 287 286 287 286 283 280 283 281 280 281 279 280 280 278 274 271 277 281 281 282 283 284 285 286 287
291 280 292 300 287 285 286 284 290 289 289 289 289 288 285 284 281 282 282 284 288 288 285 288 283 278 279 282 284 282 281 281 277 277 276 277 276 284 283 284 285 285 286 286 288
285 285 294 297 283 284 282 284 287 287 287 287 288 289 287 285 282 284 285 288 290 288 287 288 281 271 277 279 280 281 282 282 282 280 277 275 278 284 284 284 285 285 285 286 287
286 277 285 290 288 284 284 284 286 291 288 289 287 289 287 286 289 284 285 286 290 291 294 293 284 280 277 279 280 279 280 282 282 277 278 280 282 286 288 289 286 285 285 286 288
284 279 284 280 283 285 285 282 284 283 287 290 286 285 285 282 284 285 288 288 289 291 289 290 283 283 283 282 280 280 280 281 280 282 278 283 283 287 291 288 289 287 286 286 287
274 280 281 283 285 284 284 281 281 282 284 282 278 285 287 283 285 283 287 286 285 288 288 286 282 279 279 281 282 282 285 282 282 282 283 284 283 291 292 293 290 287 286 286 287
287 288 278 276 280 281 281 282 282 286 284 286 286 286 285 287 290 290 291 288 287 285 285 283 282 278 277 276 279 274 279 282 284 283 284 281 287 291 288 289 288 288 286 287 288
Wind_Speed
3 4 5 6 7 7 7 8 9 9 9 10 10 10 11 12 3 4 3 3 6 12 8 5 2 1 2 4 5 3 6 3 7 7 4 5 4 2 2 6 3 3 3 4 5
3 5 5 6 7 8 9 9 9 9 10 10 10 10 11 11 3 5 2 7 8 7 5 2 2 2 5 3 5 6 4 7 6 4 5 6 4 7 4 3 2 3 4 5 6
4 6 7 7 7 8 9 10 10 10 11 11 10 9 10 6 3 1 4 9 7 2 1 3 2 3 5 4 5 2 4 3 1 4 5 6 4 3 8 4 7 9 8 4 4
5 6 8 8 9 8 9 10 11 11 11 11 11 10 7 1 4 2 9 8 5 1 2 2 1 4 4 4 2 6 2 2 1 4 5 7 6 4 5 3 2 9 8 5 6
6 6 8 9 9 10 10 11 12 11 11 12 10 8 1 3 0 4 10 7 1 1 1 0 2 4 6 5 3 5 2 4 3 6 6 5 2 4 5 3 7 9 7 8 6
6 7 8 8 9 10 11 11 13 13 12 11 9 7 2 3 3 6 7 3 3 2 2 3 3 4 7 4 4 3 4 3 3 3 3 4 2 1 3 6 7 8 8 6 6
10 10 9 9 9 10 12 13 13 14 12 7 7 2 4 3 3 6 6 2 1 2 2 2 4 5 4 6 4 5 4 3 1 2 2 3 5 8 6 8 8 7 6 6 5
13 14 12 9 9 10 12 13 14 11 7 2 2 1 2 2 2 4 6 3 4 3 4 3 7 9 5 5 6 5 4 1 1 4 0 5 10 1 8 11 10 9 7 7 5
15 15 15 11 9 10 12 14 8 3 0 0 1 0 2 3 3 3 3 3 3 3 4 4 6 5 3 6 5 6 3 4 2 7 3 3 8 0 6 8 9 8 8 7 6
16 15 16 15 10 11 15 10 3 3 1 0 0 3 2 1 2 3 2 3 5 3 4 7 6 5 3 4 6 6 4 4 4 5 2 3 15 6 5 7 10 9 9 8 8
17 17 16 14 11 12 8 3 3 2 7 2 1 3 0 2 1 5 4 2 3 7 4 3 4 6 8 6 3 6 5 3 3 4 5 7 12 10 8 8 10 10 10 11 10
15 17 18 14 9 12 2 3 3 1 2 3 2 3 1 1 2 4 5 4 3 4 5 6 4 1 2 4 4 4 2 4 1 2 5 2 13 10 11 13 18 17 14 14 8
16 18 17 16 13 4 3 3 1 4 4 0 1 2 0 1 2 0 3 2 4 5 3 5 0 0 2 4 4 1 5 3 3 1 3 4 10 5 5 8 9 14 13 16 18
17 18 17 19 2 1 2 1 3 3 4 4 2 1 1 3 3 2 2 3 4 5 6 3 1 2 2 3 3 3 2 1 3 2 4 2 9 6 5 8 9 15 16 17 16
17 18 18 9 2 2 2 4 3 3 3 2 3 2 1 2 4 4 1 2 6 4 5 4 1 3 3 3 1 3 1 3 2 2 3 3 1 7 1 7 13 18 18 18 17
16 17 18 2 1 2 4 3 2 8 8 1 1 5 5 2 2 1 2 6 3 6 5 3 1 3 2 2 1 4 3 4 4 2 1 4 6 2 6 10 7 1 11 14 15
15 17 9 3 1 5 2 3 6 6 3 3 3 3 5 4 3 1 3 5 6 6 1 3 1 1 2 3 4 2 4 3 5 4 7 3 1 10 14 8 5 5 9 15 16
17 17 4 1 2 4 2 6 4 4 5 2 3 3 4 5 2 3 4 1 3 5 4 6 4 1 2 1 4 2 4 6 7 3 5 3 7 9 7 4 7 3 9 13 13
15 3 2 2 3 1 4 4 9 8 6 8 3 4 2 1 5 3 5 5 6 8 6 6 0 1 4 3 2 3 4 2 4 2 2 5 8 12 4 4 5 5 8 11 13
3 3 1 4 3 2 4 11 4 3 4 3 6 2 5 4 3 5 6 4 2 7 0 6 5 1 1 1 2 1 1 4 3 1 6 5 5 8 8 8 1 4 7 6 7
2 1 2 4 1 4 6 6 5 2 1 4 5 5 4 6 6 4 7 2 1 3 1 4 4 1 2 5 7 2 1 2 1 4 4 3 7 7 4 3 4 8 9 11 11
3 1 3 3 2 1 7 6 2 1 2 2 3 3 6 6 4 4 6 1 2 4 8 2 4 4 6 1 1 2 4 5 5 4 4 2 10 2 2 4 3 4 6 6 7
2 2 3 1 7 6 2 1 2 3 2 2 3 2 1 6 4 3 4 2 5 3 6 5 1 3 4 3 3 4 5 4 3 2 6 3 7 0 2 3 2 5 7 8 9
1 1 3 2 1 2 4 4 8 2 2 3 2 1 4 3 3 5 4 2 5 3 4 6 3 5 6 1 5 5 6 8 7 4 4 15 17 16 21 22 4 6 9 11 13
2 1 2 2 2 1 1 3 12 4 1 3 2 3 6 4 2 3 3 2 4 4 4 4 4 4 5 2 1 2 4 9 12 15 10 10 19 19 22 9 9 10 9 12 15
3 1 3 1 2 5 6 2 5 5 6 4 6 5 5 6 6 7 7 3 5 2 3 1 1 2 4 3 9 12 14 8 11 7 15 20 24 29 24 19 13 8 13 16 17
2 0 3 4 3 0 1 4 5 4 4 2 4 4 2 1 2 3 7 2 8 9 9 5 5 3 5 4 4 9 12 19 11 8 13 14 22 14 10 11 8 8 13 17 19
Wind_Direction
0 6 20 13 12 356 354 352 346 345 343 342 344 350 344 345 324 47 49 274 306 319 328 288 295 78 62 73 46 114 66 153 183 153 210 175 126 36 52 100 59 12 117 126 109
333 335 350 357 360 353 348 350 343 341 339 339 340 345 344 341 85 67 257 311 315 328 335 15 98 38 47 49 25 75 101 202 172 188 188 169 151 153 127 116 54 64 50 79 64
314 325 332 335 339 344 341 339 339 339 334 335 333 338 343 332 108 170 320 329 325 12 260 309 311 76 65 47 8 63 134 157 15 221 149 143 123 147 130 223 197 188 170 144 88
317 322 322 327 329 329 333 329 333 334 331 328 328 328 339 357 166 299 335 334 331 93 297 311 111 66 80 98 42 86 63 123 28 118 119 160 126 162 198 233 233 162 150 131 114
318 316 314 318 323 326 328 327 326 325 325 320 318 325 99 76 121 335 337 332 25 37 338 22 98 113 119 105 79 86 130 56 81 100 96 118 106 239 227 109 106 126 128 137 129
339 313 304 307 313 321 323 324 323 320 320 315 309 317 129 156 311 335 330 333 45 22 35 31 147 122 101 65 70 85 92 81 24 104 95 142 201 139 193 149 135 141 151 143 141
9 351 320 295 302 314 318 319 318 318 311 311 304 304 58 141 335 323 5 350 336 83 87 7 120 68 117 92 153 112 76 31 208 173 119 133 280 233 171 155 166 170 155 143 136
10 1 340 309 297 305 313 317 318 321 300 286 306 297 111 291 289 25 341 34 11 47 96 46 87 96 72 114 41 68 60 102 234 153 129 109 265 336 168 157 190 184 173 161 156
5 360 352 333 304 311 316 320 330 25 193 352 60 69 130 325 46 312 28 84 330 22 67 85 62 90 71 92 39 11 208 203 278 196 123 169 263 127 167 177 195 193 183 176 164
359 355 355 344 323 326 326 321 336 37 15 256 161 46 10 69 332 328 359 50 87 84 54 51 57 76 53 105 204 198 221 244 247 207 169 200 261 269 209 195 205 198 191 187 189
352 348 352 346 332 336 354 5 30 12 48 37 326 122 57 330 325 13 352 77 83 57 128 26 103 200 208 197 119 139 158 210 221 176 152 226 267 266 214 219 230 211 196 196 196
353 350 350 341 334 332 78 63 6 149 110 33 92 61 96 129 82 352 357 102 107 134 117 37 217 357 163 184 135 143 123 264 24 133 179 329 271 251 196 221 213 209 200 191 176
357 351 348 347 324 43 53 90 357 304 109 338 70 115 221 51 127 306 10 92 106 120 145 153 119 84 126 149 172 231 169 215 237 113 234 354 283 253 254 238 215 216 202 193 180
353 347 347 337 356 335 61 38 21 31 63 202 190 58 345 118 49 292 22 112 41 151 136 116 344 120 124 163 128 215 187 146 145 116 240 81 278 293 237 242 222 215 195 186 180
347 344 340 337 289 88 15 356 15 72 338 128 151 139 61 146 132 358 327 65 128 109 101 231 70 139 152 171 351 224 104 136 116 125 18 244 338 256 358 261 244 214 200 190 174
341 343 336 51 86 6 342 5 57 50 256 247 119 148 112 75 42 120 88 49 123 92 45 88 77 34 38 74 56 151 93 58 61 108 302 251 158 247 218 225 264 100 184 170 162
338 334 320 305 155 322 1 57 54 159 301 247 205 184 138 144 112 79 155 135 141 95 206 15 17 0 56 65 5 97 84 325 335 356 237 350 16 264 270 274 266 175 165 166 166
331 326 302 0 341 337 94 57 170 243 212 142 114 92 167 145 125 127 104 149 234 110 112 144 290 153 25 112 199 172 151 166 236 244 284 307 245 252 235 341 327 197 154 157 164
329 340 301 0 3 13 94 187 199 200 173 146 63 105 236 143 127 129 184 196 206 185 155 127 287 342 45 347 57 190 208 153 82 51 19 248 297 283 54 17 24 116 148 170 165
313 323 291 326 355 102 92 219 200 183 138 137 168 151 167 208 127 157 178 211 220 189 59 194 105 9 337 78 56 192 354 68 354 266 278 284 275 248 329 327 249 179 180 178 164
327 31 294 331 297 59 207 216 219 225 164 167 183 140 168 181 165 179 179 253 135 125 166 141 102 340 41 199 176 129 200 37 121 168 203 287 260 211 253 327 248 225 201 179 179
312 286 294 330 133 169 213 174 169 141 83 219 183 119 158 160 143 171 188 194 338 157 155 190 111 168 192 217 192 175 202 170 146 221 257 272 264 189 270 314 278 255 181 181 181
341 292 304 300 193 207 66 153 199 143 222 172 201 137 70 167 113 164 142 31 353 139 147 179 178 49 357 29 8 210 197 186 128 75 208 183 255 55 22 54 144 170 177 172 165
322 301 318 3 71 161 147 226 205 203 194 158 125 70 103 76 40 161 123 42 351 41 47 90 152 180 184 119 125 192 196 197 171 165 206 239 282 283 283 279 257 193 185 180 181
20 264 317 210 223 171 344 208 211 182 227 182 9 216 147 155 100 172 117 104 31 4 47 98 217 193 237 152 131 269 215 185 203 219 211 266 252 264 268 274 254 211 179 182 188
123 334 348 316 321 182 213 244 198 208 151 214 139 190 168 149 191 175 184 182 193 104 123 86 157 98 291 248 206 250 244 232 234 233 252 256 279 265 279 281 266 217 185 200 201
150 20 89 327 350 357 219 175 223 101 24 154 163 111 136 191 199 88 165 193 158 160 175 153 174 114 259 337 118 288 220 214 216 197 222 232 243 303 297 286 269 250 203 208 209